Valdosta Regional, GA

11:01 AM EDT on August 18, 2017 (GMT -0400)
Valdosta Regional

Weather History for KVLD - June, 2012

Change the Weather History Date:

Sunday, June 10, 2012

  Actual Average Record
Temperature  
Mean Temperature 84 °F 79 °F  
Max Temperature 93 °F 90 °F 98 °F (2006)
Min Temperature 74 °F 68 °F 59 °F (2000)
Cooling Degree Days 19 14  
Month to date cooling degree days 118 132  
Year to date cooling degree days 1002 544  
Since 1 June cooling degree days 118 132  
Growing Degree Days 32 (Base 50)    
Moisture  
Dew Point 72 °F    
Average Humidity 75    
Maximum Humidity 93    
Minimum Humidity 56    
Precipitation  
Precipitation 0.08 in 0.21 in 2.40 in (2001)
Month to date precipitation 2.12 2.11  
Year to date precipitation 17.43 21.11  
Sea Level Pressure  
Sea Level Pressure 30.05 in    
Wind  
Wind Speed 5 mph (SSE)    
Max Wind Speed 16 mph    
Max Gust Speed 21 mph    
Visibility 9 miles    
Events Rain    
T = Trace of Precipitation, MM = Missing Value Source: NWS Daily Summary

Daily Weather History Graph

Daily Weather History Graph

Search for Another Location

Airport or City:

Trip Planner

Search our weather history database for the weather conditions in past years. The results will help you decide how hot, cold, wet, or windy it might be!

Date:

Astronomy

Jun. 10, 2012 Rise Set
Actual Time 6:29 AM EDT 8:35 PM EDT
Civil Twilight 6:01 AM EDT 9:03 PM EDT
Nautical Twilight 5:28 AM EDT 9:37 PM EDT
Astronomical Twilight 4:52 AM EDT 10:13 PM EDT
Moon 12:49 AM EDT (6/10) 12:53 PM EDT (6/10)
Length of Visible Light 15h 01m
Length of Day
14h 06m
Waning Gibbous, 58% of the Moon is Illuminated
Jun 10
Waning Gibbous
Jun 11
Last Quarter
Jun 19
New
Jun 26
First Quarter
Jul 3
Full

Hourly Weather History & Observations

Time (EDT) Temp. Heat Index Dew Point Humidity Pressure Visibility Wind Dir Wind Speed Gust Speed Precip Events Conditions
12:53 AM 73.9 °F - 69.1 °F 85% 30.03 in 10.0 mi SSE 8.1 mph - N/A   Scattered Clouds
1:32 AM 73.4 °F - 69.8 °F 88% 30.00 in 10.0 mi SSE 10.4 mph - N/A   Scattered Clouds
1:41 AM 73.4 °F - 69.8 °F 88% 30.00 in 10.0 mi SE 10.4 mph - N/A   Mostly Cloudy
1:53 AM 73.9 °F - 70.0 °F 87% 30.01 in 10.0 mi SE 8.1 mph - N/A   Overcast
2:53 AM 73.4 °F - 71.6 °F 94% 29.99 in 10.0 mi SE 6.9 mph - N/A   Overcast
3:10 AM 73.4 °F - 71.6 °F 94% 30.00 in 9.0 mi SSE 6.9 mph - N/A   Overcast
3:53 AM 75.0 °F - 71.1 °F 87% 30.02 in 9.0 mi SSE 6.9 mph - N/A   Overcast
4:23 AM 75.2 °F - 71.6 °F 89% 30.00 in 7.0 mi South 6.9 mph - 0.00 in Rain Light Rain
4:53 AM 75.0 °F - 72.0 °F 90% 30.01 in 9.0 mi South 6.9 mph - 0.01 in   Overcast
5:42 AM 75.2 °F - 71.6 °F 89% 30.00 in 8.0 mi SSE 3.5 mph - N/A   Scattered Clouds
5:53 AM 75.0 °F - 71.1 °F 87% 30.02 in 9.0 mi SSE 3.5 mph - N/A   Clear
6:07 AM 75.2 °F - 71.6 °F 89% 30.02 in 7.0 mi Calm Calm - N/A   Scattered Clouds
6:18 AM 75.2 °F - 71.6 °F 89% 30.02 in 7.0 mi SSW 3.5 mph - N/A   Mostly Cloudy
6:53 AM 75.0 °F - 72.0 °F 90% 30.05 in 4.0 mi Calm Calm - 0.03 in Rain Light Rain
7:16 AM 75.2 °F - 71.6 °F 89% 30.03 in 8.0 mi SE 3.5 mph - 0.00 in Rain Light Rain
7:53 AM 75.9 °F - 72.0 °F 87% 30.06 in 8.0 mi SSW 3.5 mph - 0.00 in   Overcast
8:28 AM 75.2 °F - 71.6 °F 89% 30.05 in 8.0 mi SE 3.5 mph - 0.02 in Rain Light Rain
8:37 AM 75.2 °F - 71.6 °F 89% 30.05 in 10.0 mi Calm Calm - 0.02 in   Overcast
8:53 AM 75.9 °F - 72.0 °F 87% 30.07 in 9.0 mi ESE 3.5 mph - 0.02 in   Mostly Cloudy
9:00 AM 75.2 °F - 71.6 °F 89% 30.05 in 9.0 mi Calm Calm - N/A   Mostly Cloudy
9:12 AM 75.2 °F - 71.6 °F 89% 30.06 in 8.0 mi SE 3.5 mph - N/A   Mostly Cloudy
9:20 AM 75.2 °F - 71.6 °F 89% 30.06 in 9.0 mi SE 3.5 mph - N/A   Overcast
9:51 AM 75.2 °F - 73.4 °F 94% 30.06 in 9.0 mi SE 4.6 mph - 0.01 in Rain Light Rain
9:53 AM 75.9 °F - 73.0 °F 91% 30.08 in 9.0 mi SSE 4.6 mph - 0.01 in Rain Light Rain
10:53 AM 81.0 °F 86.7 °F 75.0 °F 82% 30.09 in 10.0 mi South 6.9 mph - 0.00 in   Overcast
11:46 AM 84.2 °F 92.3 °F 75.2 °F 74% 30.06 in 10.0 mi SSE 8.1 mph - N/A   Mostly Cloudy
11:53 AM 86.0 °F 96.0 °F 75.9 °F 72% 30.08 in 10.0 mi SSE 8.1 mph - N/A   Mostly Cloudy
12:08 PM 84.2 °F 92.3 °F 75.2 °F 74% 30.06 in 10.0 mi South 8.1 mph - N/A   Mostly Cloudy
12:53 PM 88.0 °F 97.5 °F 75.0 °F 65% 30.07 in 10.0 mi South 10.4 mph - N/A   Scattered Clouds
1:53 PM 88.0 °F 95.6 °F 73.0 °F 61% 30.05 in 10.0 mi South 9.2 mph - N/A   Scattered Clouds
2:53 PM 91.9 °F 101.3 °F 73.9 °F 55% 30.03 in 10.0 mi Variable 4.6 mph - N/A   Mostly Cloudy
3:53 PM 84.9 °F 90.1 °F 71.1 °F 63% 30.03 in 10.0 mi SE 3.5 mph - 0.01 in   Mostly Cloudy
4:53 PM 91.0 °F 99.3 °F 73.0 °F 55% 30.04 in 10.0 mi SSW 8.1 mph 16.1 mph N/A   Partly Cloudy
5:53 PM 90.0 °F 96.9 °F 72.0 °F 55% 30.06 in 10.0 mi Variable 4.6 mph - N/A   Partly Cloudy
6:53 PM 87.1 °F 94.5 °F 73.0 °F 63% 30.07 in 10.0 mi SSW 3.5 mph - N/A   Clear
7:53 PM 86.0 °F 93.0 °F 73.0 °F 65% 30.09 in 10.0 mi Calm Calm - N/A   Overcast
8:53 PM 77.0 °F - 68.0 °F 74% 30.11 in 10.0 mi Variable 3.5 mph - N/A   Partly Cloudy
9:53 PM 75.0 °F - 69.1 °F 82% 30.14 in 10.0 mi NE 3.5 mph - N/A   Mostly Cloudy
10:53 PM 75.0 °F - 69.1 °F 82% 30.15 in 10.0 mi Calm Calm - N/A   Clear
11:53 PM 75.0 °F - 68.0 °F 79% 30.14 in 10.0 mi Calm Calm - N/A   Clear